Powrót do katalogu

STARLINK-5320

AktywnyŁącznośćVLEO
NORAD 55289·PAYLOAD·🇺🇸 United States

Wystrzelony Jan 19, 2023 z Vandenberg Space Force Base

Loading…

Następne Przeloty (najbliższe 24 godziny)

TLE

ŚwieżeSource: CelesTrak SupGP

Epoka: Sep 14, 2026, 13:31 UTC

1 55289C 23010W   26257.56368056  .00006638  00000+0  55625-3 0  2571
2 55289  69.9991 268.3218 0004115 271.1582 265.1353 14.98326738    18

Śledź STARLINK-5320 w czasie rzeczywistym z AllMySat

Download on the App Store